Orlando, FL

9:51 PM EDT on March 26, 2017 (GMT -0400)
Executive

Weather History for KORL - November, 2012

Change the Weather History Date:

Wednesday, November 7, 2012

  Actual Average Record
Temperature  
Mean Temperature 60 °F -  
Max Temperature 66 °F 76 °F 89 °F (2015)
Min Temperature 55 °F 60 °F 48 °F (2010)
Degree Days  
Heating Degree Days 4    
Growing Degree Days 10 (Base 50)    
Moisture  
Dew Point 47 °F    
Average Humidity 66    
Maximum Humidity 89    
Minimum Humidity 38    
Precipitation  
Precipitation 0.00 in - - ()
Sea Level Pressure  
Sea Level Pressure 29.93 in    
Wind  
Wind Speed 9 mph (WNW)    
Max Wind Speed 14 mph    
Max Gust Speed 21 mph    
Visibility 10 miles    
Events      
Averages and records for this station are not official NWS values.
T = Trace of Precipitation, MM = Missing Value Source: NWS Daily Summary

Daily Weather History Graph

Daily Weather History Graph

Search for Another Location

Airport or City:

Trip Planner

Search our weather history database for the weather conditions in past years. The results will help you decide how hot, cold, wet, or windy it might be!

Date:

Astronomy

Nov. 07, 2012 Rise Set
Actual Time 6:42 AM EST 5:35 PM EST
Civil Twilight 6:17 AM EST 6:00 PM EST
Nautical Twilight 5:49 AM EST 6:28 PM EST
Astronomical Twilight 5:21 AM EST 6:56 PM EST
Moon 12:07 AM EST (11/7) 1:13 PM EST (11/7)
Length of Visible Light 11h 42m
Length of Day
10h 53m
Last Quarter, 43% of the Moon is Illuminated
Nov 7
Last Quarter
Nov 13
New
Nov 20
First Quarter
Nov 28
Full
Dec 6
Last Quarter

Hourly Weather History & Observations

Time (EST) Temp. Dew Point Humidity Pressure Visibility Wind Dir Wind Speed Gust Speed Precip Events Conditions
12:53 AM 60.1 °F 54.0 °F 80% 29.87 in 10.0 mi WNW 6.9 mph - N/A   Clear
1:53 AM 59.0 °F 53.1 °F 81% 29.87 in 10.0 mi WNW 6.9 mph - N/A   Clear
2:53 AM 57.9 °F 52.0 °F 81% 29.86 in 10.0 mi WNW 8.1 mph - N/A   Clear
3:53 AM 57.0 °F 52.0 °F 83% 29.88 in 10.0 mi WNW 9.2 mph - N/A   Scattered Clouds
4:10 AM 57.2 °F 53.6 °F 88% 29.88 in 10.0 mi WNW 12.7 mph - N/A   Mostly Cloudy
4:53 AM 57.0 °F 54.0 °F 89% 29.91 in 10.0 mi NW 9.2 mph - N/A   Overcast
5:21 AM 57.2 °F 53.6 °F 88% 29.90 in 10.0 mi NW 9.2 mph - N/A   Overcast
5:42 AM 57.2 °F 53.6 °F 88% 29.91 in 9.0 mi West 11.5 mph - N/A   Overcast
5:53 AM 57.9 °F 54.0 °F 87% 29.92 in 9.0 mi WNW 10.4 mph - N/A   Overcast
6:53 AM 55.9 °F 51.1 °F 84% 29.94 in 10.0 mi NW 10.4 mph - N/A   Overcast
7:00 AM 55.4 °F 51.8 °F 88% 29.92 in 10.0 mi WNW 10.4 mph - N/A   Overcast
7:22 AM 55.4 °F 50.0 °F 82% 29.93 in 10.0 mi NW 10.4 mph - N/A   Scattered Clouds
7:53 AM 55.9 °F 50.0 °F 80% 29.94 in 10.0 mi NW 9.2 mph - N/A   Clear
8:53 AM 57.0 °F 48.0 °F 72% 29.97 in 10.0 mi NW 11.5 mph 19.6 mph N/A   Scattered Clouds
9:53 AM 60.1 °F 46.0 °F 60% 29.98 in 10.0 mi NW 12.7 mph 17.3 mph N/A   Clear
10:53 AM 64.0 °F 42.1 °F 45% 29.97 in - WNW 13.8 mph - N/A   Clear
11:53 AM 64.0 °F 41.0 °F 43% 29.95 in - North - - N/A   Partly Cloudy
12:53 PM 64.9 °F 42.1 °F 43% 29.93 in - North - - N/A   Partly Cloudy
1:53 PM 66.0 °F 43.0 °F 43% 29.91 in - North - - N/A   Partly Cloudy
2:27 PM 64.4 °F 41.0 °F 42% 29.89 in 10.0 mi North - - N/A   Scattered Clouds
2:53 PM 66.0 °F 39.9 °F 38% 29.90 in 10.0 mi North - - N/A   Partly Cloudy
3:53 PM 64.9 °F 39.0 °F 39% 29.90 in 10.0 mi WNW 8.1 mph 20.7 mph N/A   Scattered Clouds
4:53 PM 63.0 °F 39.9 °F 43% 29.91 in 10.0 mi WNW 11.5 mph - N/A   Clear
6:53 PM 61.0 °F 42.1 °F 50% 29.95 in 10.0 mi West 10.4 mph - N/A   Overcast
7:53 PM 60.1 °F 44.1 °F 55% 29.98 in 10.0 mi WNW 8.1 mph - N/A   Mostly Cloudy
8:53 PM 59.0 °F 44.1 °F 58% 30.00 in 10.0 mi WNW 8.1 mph - N/A   Overcast
9:53 PM 57.9 °F 45.0 °F 62% 30.01 in 10.0 mi WNW 6.9 mph - N/A   Mostly Cloudy
10:53 PM 55.9 °F 45.0 °F 67% 30.02 in 10.0 mi WNW 4.6 mph - N/A   Partly Cloudy
11:53 PM 57.0 °F 44.1 °F 62% 30.01 in 10.0 mi NW 9.2 mph - N/A   Clear